CW3742 Weather Reports


Display with metric or nautical units.
time (UTC)temp
F
wind
direction
speed
MPH
gust
MPH
rain 1hr
in
rain 24hr
in
rain mn
in
humidity
%
barometer
mb
20260904143019 85 225 4.0 9.0 0.00 0.00 0.00 72 995.2
20260904140020 82 225 6.0 10.0 0.00 0.00 0.00 77 994.8
20260904133018 80 225 7.0 12.0 0.00 0.00 0.00 78 994.8
20260904130018 79 225 6.0 10.0 0.00 0.00 0.00 80 994.8
20260904123018 78 225 5.0 10.0 0.00 0.00 0.00 82 994.4
20260904120018 77 203 6.0 9.0 0.00 0.00 0.00 83 994.1
20260904113018 76 203 5.0 8.0 0.00 0.00 0.00 84 993.9
20260904110018 76 180 5.0 8.0 0.00 0.00 0.00 84 993.7
20260904103018 76 180 5.0 8.0 0.00 0.00 0.00 84 993.8
20260904100036 77 158 5.0 9.0 0.00 0.00 0.00 84 993.7
20260904093016 77 158 5.0 9.0 0.00 0.00 0.00 82 993.3
20260904090016 77 158 5.0 8.0 0.00 0.00 0.00 82 993.1
20260904083016 78 158 5.0 7.0 0.00 0.00 0.00 82 993.1
20260904080036 79 158 4.0 8.0 0.00 0.00 0.00 80 993.1
20260904073018 78 135 4.0 6.0 0.00 0.00 0.00 83 993.2
20260904070016 79 158 4.0 7.0 0.00 0.00 0.00 82 993.4
20260904063016 79 158 4.0 7.0 0.00 0.00 0.00 82 993.6
20260904060056 79 135 4.0 7.0 0.00 0.00 0.00 82 993.7
20260904053056 80 135 4.0 6.0 0.00 0.00 0.00 81 993.9
20260904050016 80 135 4.0 6.0 0.00 0.00 0.00 81 993.7
20260904043018 80 135 4.0 5.0 0.00 0.00 0.00 82 993.5
20260904040018 81 158 4.0 7.0 0.00 0.00 0.00 81 993.5
20260904033018 82 158 4.0 7.0 0.00 0.00 0.00 80 993.4
20260904030018 83 158 3.0 7.0 0.00 0.00 0.00 79 993.4
20260904023018 83 180 4.0 7.0 0.00 0.00 0.00 78 992.9
20260904020038 85 180 4.0 9.0 0.00 0.00 0.00 77 992.7
20260904013018 85 180 4.0 7.0 0.00 0.00 0.00 76 992.6
20260904010018 86 158 3.0 6.0 0.00 0.00 0.00 74 992.4
20260904003016 88 158 4.0 7.0 0.00 0.00 0.00 72 992.3
20260904000016 89 158 4.0 9.0 0.00 0.00 0.00 70 992.3
20260903233016 91 158 5.0 9.0 0.00 0.00 0.00 68 992.4
20260903230017 93 158 4.0 8.0 0.00 0.00 0.00 65 992.7
20260903223016 94 158 5.0 10.0 0.00 0.00 0.00 62 992.8
20260903220036 95 180 5.0 11.0 0.00 0.00 0.00 61 993.1
20260903213016 95 225 6.0 9.0 0.00 0.00 0.00 59 993.4
20260903210016 96 203 5.0 9.0 0.00 0.00 0.00 57 993.4
20260903203016 96 225 3.0 9.0 0.00 0.00 0.00 58 993.6
20260903200016 95 203 3.0 7.0 0.00 0.00 0.00 59 993.7
20260903193017 94 158 5.0 11.0 0.00 0.00 0.00 60 994.0
20260903190016 94 203 5.0 10.0 0.00 0.00 0.00 59 994.0
20260903183016 94 225 4.0 9.0 0.00 0.00 0.00 61 994.2
20260903180016 92 225 3.0 9.0 0.00 0.00 0.00 62 994.4
20260903173016 92 225 3.0 8.0 0.00 0.00 0.00 64 994.5
20260903170018 90 225 5.0 11.0 0.00 0.00 0.00 64 994.8
20260903163016 89 225 4.0 10.0 0.00 0.00 0.00 67 995.0
20260903160016 87 225 6.0 12.0 0.00 0.00 0.00 68 995.1
20260903153016 86 225 7.0 13.0 0.00 0.00 0.00 70 995.0
20260903150016 85 225 8.0 14.0 0.00 0.00 0.00 71 994.9